Vorticity
5 3 2 1 0 0 3 4 2 -1 -1 16 19 5 3 5 9 12 5 7 10 7 5 3 4 6 4 2 3 4 4 4 5 5 3 3 4 4 4 3 2 2 2 3 3 3 4 4 4 5 4 4 4 4 4 5 5 5 5 5 5 5 5 5 5 5 4 5 5 5 5 5 5 5 6 5 5 5 4 5 5 4 5 5 6 6 7 7
8 3 4 4 -0 -0 0 5 10 1 4 20 13 2 4 7 12 10 5 8 9 6 3 3 4 4 3 2 3 5 4 4 4 3 4 5 5 5 4 3 2 2 3 3 3 2 3 4 5 6 6 4 4 6 5 5 6 6 5 5 5 5 5 5 5 4 4 4 4 4 4 4 5 5 5 4 5 4 4 5 5 5 5 5 5 5 6 7
12 7 6 5 1 3 -0 4 14 4 10 19 5 2 5 8 13 7 5 8 7 5 3 3 3 3 3 3 3 4 5 5 3 2 5 7 5 4 3 3 3 2 3 3 3 2 2 3 4 5 6 5 5 6 6 5 6 6 5 5 5 5 5 5 4 4 3 3 3 3 4 4 4 4 4 5 5 4 5 5 5 6 5 4 5 6 6 7
16 13 9 7 5 6 4 7 11 4 13 17 3 3 5 9 11 5 6 8 7 4 2 3 2 3 3 2 2 4 6 6 3 3 8 8 4 4 3 2 2 2 3 1 2 2 2 2 3 5 4 5 7 6 5 4 5 5 5 5 5 4 4 4 4 4 3 3 3 3 4 4 4 3 4 4 4 5 6 5 5 6 6 5 5 6 6 7
13 13 8 8 7 6 8 9 8 7 14 11 2 4 7 10 9 4 7 9 7 4 2 2 2 3 3 2 4 6 7 6 6 6 8 5 2 2 2 2 2 2 2 0 1 2 3 3 3 5 4 4 7 7 5 4 5 6 5 5 5 4 4 4 4 4 3 4 4 4 4 5 4 4 4 4 4 4 6 6 7 7 7 7 5 6 7 7
8 10 7 3 6 8 10 9 9 12 11 5 2 6 9 10 7 5 8 9 8 3 2 3 3 4 3 3 5 6 6 6 7 5 4 2 2 2 2 3 2 3 3 1 2 1 3 5 4 5 6 4 6 7 5 4 6 6 5 6 5 5 5 4 4 4 4 4 4 5 5 4 4 5 4 5 5 4 6 6 7 7 7 7 6 6 7 8
9 7 7 5 8 9 8 11 13 11 6 4 4 6 10 9 6 6 8 9 7 3 3 3 2 2 2 5 6 5 4 6 5 3 2 2 3 3 3 4 3 3 3 2 3 2 2 5 4 5 8 6 5 7 6 5 6 6 6 7 6 5 6 4 4 4 4 4 4 5 4 4 5 5 4 5 6 6 6 7 7 7 7 7 7 7 7 8
17 10 10 10 8 6 10 16 14 7 4 6 5 7 11 7 5 7 8 9 7 3 3 2 2 2 3 4 5 6 5 6 5 2 2 3 4 5 5 5 4 3 3 2 4 3 2 5 5 6 8 7 5 7 7 6 6 7 8 7 6 6 6 5 6 5 5 5 5 5 5 5 6 6 5 6 7 6 6 7 7 7 7 7 7 8 9 8
19 11 8 6 6 9 15 15 11 7 5 5 5 9 10 5 4 6 7 9 7 3 2 3 4 4 3 2 5 7 6 5 4 3 2 4 5 6 5 5 4 4 4 2 3 3 3 4 5 7 7 6 6 7 7 6 6 7 8 7 7 8 7 7 8 6 6 7 7 7 6 5 6 7 7 8 8 7 7 7 7 7 8 8 8 9 9 9
15 10 11 12 16 19 14 9 9 6 3 4 7 10 8 3 4 5 7 8 6 3 2 4 5 3 2 3 5 6 6 5 5 3 3 6 7 6 5 3 4 4 4 3 1 2 3 3 4 6 6 5 6 7 7 7 7 8 7 7 8 8 9 9 9 8 7 7 7 7 6 5 6 8 9 9 9 8 8 7 7 8 8 8 9 11 9 9
19 12 17 21 20 21 16 8 6 4 3 5 7 10 7 2 4 5 6 8 6 3 3 5 5 3 3 4 3 4 6 5 5 4 4 7 8 6 4 3 3 3 3 3 2 2 2 3 4 6 6 5 6 6 6 7 7 8 7 6 8 7 8 10 8 8 7 5 6 6 7 6 6 9 10 9 8 8 7 7 8 8 8 8 10 11 9 9
11 3 6 11 9 13 13 5 3 4 4 5 8 9 5 2 5 5 7 8 6 3 3 5 5 3 2 4 3 4 5 5 5 5 6 7 6 6 6 5 4 2 3 2 2 3 2 3 4 5 6 6 6 6 6 6 6 6 5 5 5 4 5 6 6 6 4 4 4 6 10 7 3 7 9 7 6 7 7 6 8 7 7 10 11 11 9 9
1 0 0 2 3 6 7 2 4 4 4 6 9 8 4 3 4 6 8 8 6 4 2 5 6 3 2 5 5 4 5 6 5 5 7 6 5 7 7 5 4 3 3 2 2 3 3 3 3 4 6 6 6 6 6 6 6 5 5 4 3 3 2 1 3 3 3 4 3 5 11 5 0 7 7 5 6 7 7 7 8 7 8 11 10 10 9 9
-1 2 1 -0 2 7 6 3 4 4 4 7 9 7 3 2 4 6 7 7 7 4 3 6 6 3 4 5 6 6 5 5 6 6 7 5 6 8 5 3 4 2 2 3 3 3 3 4 3 4 5 6 6 5 6 7 5 4 3 4 4 3 2 0 1 2 2 3 2 3 8 3 -1 6 5 4 7 7 7 7 8 9 10 11 9 10 10 8
1 2 1 0 1 4 6 4 3 4 6 8 8 6 2 2 4 6 7 7 7 4 4 6 5 4 3 4 6 7 6 4 6 7 5 5 6 6 5 4 3 2 3 4 4 5 4 4 5 5 6 7 6 5 6 5 4 3 2 3 4 3 4 3 3 3 3 4 3 3 7 2 -1 4 7 8 9 8 8 7 10 12 11 10 9 10 9 8
5 4 2 1 0 4 5 4 4 4 6 9 7 4 2 3 5 7 7 6 6 5 5 6 5 3 2 5 7 6 5 4 6 7 6 5 3 2 3 4 4 5 6 6 6 6 6 6 7 7 7 7 6 6 4 5 4 3 3 4 5 4 4 5 5 5 5 5 4 4 6 3 2 6 10 12 9 8 9 8 12 13 10 9 10 10 9 8
7 5 2 -1 0 8 7 3 5 5 7 9 6 3 2 3 5 7 7 6 7 7 6 5 4 3 4 6 7 5 4 5 7 8 8 7 4 3 3 4 6 7 7 7 7 7 7 8 8 8 8 7 7 6 4 6 5 4 4 4 6 6 5 4 5 6 5 5 2 3 6 3 3 7 9 10 8 8 9 10 13 11 9 10 10 10 9 10
7 5 4 -1 -1 14 11 2 5 5 8 9 4 3 3 3 6 6 6 5 7 7 6 5 3 4 6 6 6 5 5 5 7 8 8 8 6 6 6 7 8 7 6 7 7 8 8 9 9 8 8 8 8 7 7 7 5 4 4 4 5 6 7 4 4 5 3 4 3 3 8 6 5 9 11 12 11 10 10 11 12 10 9 11 10 10 10 11
7 6 8 3 4 19 12 1 5 6 8 8 3 3 3 4 6 6 5 5 8 8 6 6 5 5 5 5 6 6 6 6 6 7 7 7 7 8 9 9 9 9 8 9 9 8 8 9 9 8 8 8 7 7 7 5 4 4 4 5 4 3 7 6 5 5 2 4 4 7 13 10 9 13 13 13 12 10 11 11 11 10 10 11 10 10 10 12
10 8 8 7 11 19 9 1 6 6 7 6 3 4 3 4 6 6 5 5 8 8 5 5 5 5 7 7 7 6 6 6 6 7 7 7 7 8 9 9 9 9 9 9 8 8 8 9 8 8 8 7 6 6 6 5 5 5 4 5 5 3 4 6 6 4 2 3 2 8 17 10 8 15 12 10 10 11 12 11 11 10 10 10 9 9 11 12
12 9 6 8 13 14 7 4 7 7 8 5 3 3 3 5 7 6 6 6 8 7 5 5 4 5 6 6 7 6 5 6 7 7 7 7 8 8 8 8 8 7 8 7 6 7 8 7 6 6 6 5 5 5 6 6 5 6 5 4 6 5 3 5 6 2 2 3 2 10 18 10 7 14 12 7 9 12 13 11 9 10 10 10 10 11 12 11
8 6 5 8 11 10 5 6 8 7 7 5 4 4 4 6 7 5 5 7 8 7 5 4 6 6 6 6 6 6 5 6 6 5 7 6 6 7 7 7 6 5 6 5 3 4 5 5 5 5 4 4 4 4 5 5 5 5 5 4 5 4 2 2 2 3 5 5 5 10 15 11 6 10 12 7 10 15 12 9 8 10 10 10 11 12 12 10
7 5 7 9 9 7 5 7 8 8 6 4 4 5 6 6 7 5 5 6 7 7 5 4 7 7 5 5 4 3 4 5 4 3 5 3 4 6 5 5 5 4 4 3 2 2 3 3 3 3 3 3 3 5 5 5 7 6 4 5 4 4 4 1 -2 3 8 10 12 10 13 16 6 6 13 8 11 15 9 7 9 11 10 9 11 11 10 8
6 6 10 11 9 7 6 6 7 7 6 5 5 6 7 7 7 6 6 7 4 4 4 4 6 5 4 2 0 1 2 4 4 2 2 1 2 4 3 3 4 4 4 2 2 2 1 2 2 2 3 3 4 5 5 5 7 7 6 5 4 5 6 5 4 5 10 14 15 10 12 18 7 3 13 12 12 13 8 10 11 10 9 9 9 8 7 7
8 8 14 14 9 7 6 3 2 4 6 5 5 6 7 6 6 6 7 6 4 3 2 2 3 3 4 4 1 1 1 2 1 1 2 1 2 3 2 3 3 3 3 2 2 2 2 2 2 2 3 3 4 5 5 4 4 5 6 5 5 5 3 6 7 8 13 14 12 9 7 14 11 4 13 15 12 11 9 12 11 8 9 7 6 6 6 6
11 11 14 13 9 8 9 6 1 1 3 4 4 7 7 6 6 6 5 4 4 3 2 2 2 1 2 3 2 1 1 1 -1 -0 2 1 2 3 2 3 3 3 3 2 3 2 2 3 3 3 3 4 4 4 5 5 4 4 4 4 4 4 3 5 7 10 16 13 11 10 4 12 15 5 11 15 9 10 11 10 9 8 8 5 4 5 5 5
12 11 10 9 7 7 10 12 5 -2 1 4 6 7 6 6 7 4 3 3 3 3 3 2 4 5 3 2 2 2 2 2 -0 -0 1 1 2 2 2 3 2 3 3 3 4 2 3 4 3 4 3 4 4 4 5 4 5 4 3 4 3 4 4 6 9 12 15 12 12 11 3 10 15 5 9 12 8 12 11 8 9 7 6 5 3 4 5 5
11 11 10 9 9 13 17 16 4 -3 3 8 8 8 6 6 7 3 2 4 2 4 5 3 4 5 2 1 2 3 3 3 1 0 1 1 2 1 2 2 2 3 3 3 4 3 4 4 4 5 4 5 4 4 5 4 5 4 3 4 2 4 6 7 11 12 13 13 11 9 5 9 13 6 7 11 9 11 9 7 8 7 5 5 4 4 5 5
14 14 14 13 13 19 18 9 -0 1 8 10 9 7 5 6 7 3 2 3 2 3 4 4 5 3 1 2 3 3 4 3 1 1 2 1 1 2 2 3 3 3 3 4 4 4 5 4 5 5 4 5 5 4 4 4 4 3 4 4 4 6 7 8 12 10 11 13 10 9 9 9 12 7 4 9 10 9 9 8 7 6 6 5 4 4 6 6
19 16 13 10 9 11 7 1 3 8 10 9 9 7 5 6 6 3 1 2 2 2 3 3 3 2 2 3 2 2 5 4 2 2 2 1 2 2 2 3 3 3 4 4 4 5 5 4 6 5 5 5 4 5 4 4 4 4 3 4 4 6 6 9 12 8 9 11 10 11 10 10 11 6 4 8 8 9 10 8 6 7 7 6 5 5 6 6
20 13 7 6 5 5 3 4 9 10 10 10 9 6 5 7 6 4 3 2 2 1 2 3 1 1 2 2 2 4 5 4 3 2 2 2 2 2 3 3 3 4 4 4 4 5 5 6 6 5 6 5 5 5 4 4 5 5 4 4 5 5 7 11 10 7 8 10 11 11 9 13 12 5 6 9 7 9 9 7 6 6 7 7 6 6 6 6
16 9 7 5 4 5 2 6 10 8 10 10 9 7 6 6 6 6 4 2 2 2 3 4 3 2 2 2 3 5 6 4 3 3 2 2 2 3 3 4 4 4 4 4 5 5 6 7 6 6 6 5 5 5 5 5 5 5 6 6 7 8 10 11 7 6 9 8 13 12 8 15 13 4 7 8 5 7 7 5 5 4 6 7 6 6 6 7
12 7 8 4 3 5 1 4 8 7 8 9 9 9 7 5 5 7 6 3 2 1 2 3 2 2 1 2 4 5 5 4 3 2 2 3 3 3 4 4 4 4 4 5 5 6 6 6 6 6 5 5 5 5 5 4 4 6 7 5 7 11 11 9 7 7 8 10 15 12 8 15 14 5 7 8 5 5 5 4 3 3 5 5 5 6 6 7
9 4 7 4 2 4 1 2 5 5 6 7 8 9 9 8 6 6 6 5 3 1 2 2 2 3 2 3 5 5 4 3 3 2 2 4 4 4 5 4 5 5 5 6 6 6 6 6 7 5 5 6 5 5 5 4 5 7 6 6 9 10 9 8 8 7 6 10 16 11 9 16 12 6 8 8 5 4 4 3 2 3 4 4 6 6 5 6
9 4 7 7 3 2 2 5 6 6 6 6 8 8 9 10 8 7 6 5 4 3 3 3 3 4 3 4 5 4 4 3 2 3 3 4 4 4 5 5 5 6 5 6 6 6 6 6 6 5 5 6 5 6 6 5 7 7 6 9 9 8 8 7 7 8 5 7 14 10 9 16 12 6 8 8 6 4 2 1 2 2 3 5 6 5 5 7
10 6 9 9 2 -1 3 7 8 8 8 8 9 9 9 10 9 9 8 6 5 4 4 4 3 3 4 5 5 4 3 2 3 4 4 4 4 5 6 6 6 6 6 7 6 6 5 4 5 6 6 6 5 6 7 7 7 7 9 10 8 7 9 7 6 8 6 6 10 8 9 18 15 6 8 10 6 3 1 0 1 2 4 6 6 4 6 7
18 13 12 10 1 -2 3 8 8 9 9 9 10 9 9 9 9 9 8 7 6 4 4 4 3 4 4 4 4 4 3 3 4 4 4 4 5 7 8 7 7 8 7 6 5 4 3 3 5 7 7 6 6 6 8 7 6 8 9 8 8 8 8 9 7 6 6 6 8 8 11 19 16 8 10 10 4 2 3 1 -0 2 6 6 5 5 5 6
14 11 8 6 3 1 3 7 8 8 8 9 9 9 9 8 9 9 8 7 6 5 4 4 4 4 4 4 4 4 4 4 4 4 4 6 8 9 8 7 8 7 5 4 4 4 2 3 5 8 7 6 6 8 8 7 7 9 9 8 9 9 9 11 7 4 6 5 7 9 11 20 23 13 7 5 2 3 3 0 -1 3 6 5 5 5 5 6
5 5 4 4 3 3 3 6 8 7 8 8 8 8 7 7 8 7 7 6 5 5 5 4 4 4 4 5 4 4 4 4 5 5 7 9 10 9 7 6 6 3 3 3 4 4 3 4 6 9 9 7 7 9 8 7 8 9 9 9 9 10 10 8 6 7 4 3 7 7 13 33 33 9 -1 1 3 3 0 -1 1 3 6 6 5 5 5 5
6 5 6 4 1 2 4 6 8 7 8 8 8 8 7 6 7 7 7 6 6 6 6 5 5 5 5 5 4 4 4 5 7 8 8 9 8 6 5 3 2 1 3 5 5 6 5 5 8 11 11 9 8 9 8 8 9 9 8 10 11 11 9 6 7 8 3 4 8 4 16 39 25 -4 -4 4 1 -0 -1 -0 2 4 6 6 5 6 5 6
8 8 8 5 2 2 5 7 7 7 7 7 8 8 7 7 6 7 7 6 6 6 6 5 5 5 5 4 5 6 6 7 8 8 8 7 4 3 2 1 3 4 6 8 8 8 7 6 10 13 12 9 8 9 8 8 9 8 8 11 12 11 9 6 5 6 4 6 9 6 12 21 7 -5 2 4 -2 0 2 2 4 6 6 5 5 5 6 6
7 8 6 4 4 4 6 7 6 6 6 7 8 7 8 7 7 7 7 6 6 5 5 5 5 5 5 6 6 7 7 7 7 6 4 3 2 2 3 4 7 8 9 10 10 9 8 8 10 13 12 9 10 10 8 8 8 7 9 13 12 10 9 5 3 4 5 7 11 9 3 -3 -4 2 5 1 0 3 3 3 6 7 6 5 5 5 5 5
6 7 5 4 5 5 7 6 5 6 6 6 7 7 8 7 7 7 6 6 6 5 5 6 6 7 7 7 6 6 6 6 5 4 2 3 4 5 7 10 11 11 11 11 11 10 9 8 10 10 9 10 11 9 7 7 7 8 12 13 11 9 7 4 4 5 6 11 12 6 -2 -6 -2 4 4 2 1 2 4 5 7 7 6 5 4 4 4 4
5 5 4 6 6 6 6 4 5 6 6 7 7 6 7 7 6 6 4 5 6 5 6 6 7 8 6 5 5 4 5 5 3 3 4 7 9 10 12 12 12 12 12 11 11 10 9 9 10 7 6 8 8 6 6 7 8 12 14 12 11 9 6 5 7 6 7 12 8 -0 0 3 3 4 4 1 0 4 6 6 7 7 5 5 5 4 3 5
6 5 6 7 6 5 5 4 4 5 6 7 6 6 7 5 5 5 4 6 6 6 7 6 6 5 4 5 5 5 6 6 6 8 10 12 12 12 12 12 11 12 11 10 10 8 9 10 10 7 6 7 8 9 10 9 11 13 13 12 11 8 6 6 8 8 8 9 6 5 6 4 3 4 2 0 4 7 6 6 7 6 4 5 4 2 4 9
5 6 5 5 5 5 5 5 4 5 6 7 6 6 7 5 6 7 6 6 7 6 6 5 5 5 6 7 7 8 9 9 10 12 12 11 10 11 11 10 10 10 9 9 8 6 8 10 9 8 7 6 9 12 11 9 11 13 12 12 10 6 6 8 9 10 8 4 6 10 5 -1 2 4 1 4 8 5 4 7 6 4 4 4 2 2 8 13
5 5 5 4 4 5 5 6 6 6 6 5 5 5 6 6 7 6 6 6 6 6 6 6 7 8 8 9 9 10 10 10 12 12 10 9 10 9 9 8 9 10 9 8 7 6 7 9 9 8 7 9 13 13 10 9 11 12 12 12 9 7 9 10 9 9 6 3 3 6 2 -1 2 4 4 7 5 3 6 6 3 4 6 4 2 6 12 13
5 4 4 4 4 5 7 8 8 7 6 5 5 5 6 7 6 5 6 7 7 8 8 8 9 9 9 10 10 10 9 9 10 9 7 9 9 8 8 9 10 10 9 8 8 8 7 9 10 8 9 14 15 12 10 10 11 12 13 12 9 9 10 9 8 7 5 4 3 3 3 3 4 5 7 6 3 4 7 4 3 7 7 4 6 10 13 11
5 4 5 4 4 5 6 7 7 7 7 6 6 7 7 7 7 7 8 8 9 9 9 8 9 9 9 9 9 8 8 8 8 7 7 9 9 8 9 10 10 9 10 10 9 9 8 10 11 9 11 18 16 10 10 11 11 13 14 11 9 9 9 6 6 4 3 4 5 4 3 6 8 6 4 5 6 6 5 3 5 6 5 6 8 11 11 9
4 5 6 7 7 6 6 7 7 7 8 8 8 8 8 8 9 9 9 9 8 8 9 9 8 9 8 7 8 8 7 8 8 8 9 10 11 10 10 11 11 11 12 11 10 10 10 11 12 9 11 17 14 10 11 12 13 13 11 9 8 7 5 3 4 5 6 5 5 4 3 7 9 5 3 6 7 4 4 5 6 5 4 6 9 11 11 8
6 8 9 8 8 7 7 8 9 9 10 10 9 9 9 9 9 8 8 9 8 8 9 9 8 9 9 8 9 9 9 10 11 11 12 12 12 12 11 13 13 13 12 12 12 12 11 11 11 9 10 14 13 11 12 12 11 11 9 7 5 3 2 4 6 7 8 6 4 5 6 5 5 5 6 8 6 4 5 5 6 6 6 8 10 10 9 7
8 9 9 9 9 9 9 9 10 10 9 9 8 8 8 8 9 10 10 10 10 10 9 9 9 9 9 9 10 10 10 11 12 12 13 13 12 13 13 14 13 13 14 13 12 11 10 10 10 9 10 13 12 10 10 10 9 9 6 3 3 4 5 6 7 7 8 7 5 7 6 4 6 7 5 4 4 5 6 5 7 10 10 11 10 7 7 7
Height
5814 5816 5818 5820 5821 5822 5823 5824 5826 5828 5829 5830 5831 5832 5833 5834 5835 5836 5836 5836 5836 5837 5838 5839 5839 5840 5840 5841 5841 5841 5840 5840 5840 5840 5840 5840 5840 5840 5839 5838 5838 5838 5838 5837 5836 5836 5835 5834 5832 5831 5830 5829 5827 5826 5825 5824 5823 5821 5820 5819 5817 5816 5815 5813 5811 5809 5807 5806 5804 5803 5801 5799 5798 5796 5795 5792 5790 5788 5786 5783 5781 5778 5776 5774 5771 5769 5766 5763
5813 5815 5818 5820 5821 5822 5823 5825 5827 5828 5830 5830 5831 5832 5833 5834 5835 5836 5836 5836 5837 5838 5839 5839 5840 5840 5841 5841 5841 5841 5841 5841 5840 5840 5840 5840 5840 5840 5839 5838 5838 5838 5838 5837 5837 5835 5834 5833 5832 5831 5829 5828 5827 5825 5824 5823 5821 5820 5818 5817 5816 5814 5813 5811 5809 5807 5805 5804 5802 5801 5799 5798 5796 5794 5792 5790 5788 5785 5783 5780 5778 5775 5773 5771 5768 5765 5762 5760
5813 5815 5817 5819 5821 5822 5824 5825 5827 5828 5829 5830 5831 5832 5833 5834 5836 5837 5837 5837 5837 5838 5839 5840 5840 5841 5841 5841 5841 5842 5841 5841 5841 5840 5840 5841 5841 5840 5839 5839 5838 5838 5838 5837 5836 5835 5834 5833 5832 5830 5829 5827 5826 5825 5823 5821 5820 5818 5817 5815 5814 5813 5811 5809 5807 5805 5804 5802 5800 5799 5798 5796 5794 5792 5790 5787 5785 5783 5780 5778 5775 5772 5770 5767 5764 5761 5758 5755
5813 5815 5817 5819 5820 5822 5824 5826 5827 5828 5829 5830 5831 5832 5833 5835 5836 5837 5837 5837 5838 5838 5839 5840 5841 5841 5842 5842 5842 5842 5842 5841 5841 5840 5841 5841 5840 5840 5839 5839 5838 5838 5837 5837 5836 5835 5834 5833 5831 5830 5828 5826 5825 5824 5821 5820 5818 5817 5816 5814 5812 5811 5809 5807 5806 5804 5802 5800 5798 5797 5796 5794 5792 5789 5787 5784 5782 5780 5777 5775 5772 5769 5766 5763 5760 5757 5754 5751
5813 5814 5816 5818 5820 5822 5824 5825 5827 5828 5829 5830 5831 5832 5834 5835 5836 5837 5838 5838 5838 5839 5840 5841 5841 5842 5842 5842 5842 5842 5842 5841 5841 5841 5841 5841 5840 5839 5839 5838 5838 5838 5837 5836 5835 5834 5833 5832 5831 5829 5827 5825 5824 5822 5820 5818 5817 5816 5814 5813 5811 5809 5808 5806 5805 5803 5801 5799 5797 5795 5793 5791 5789 5787 5784 5782 5780 5777 5775 5772 5769 5766 5763 5759 5756 5753 5750 5747
5812 5814 5816 5818 5820 5822 5823 5825 5826 5827 5829 5830 5831 5833 5834 5835 5837 5838 5838 5838 5839 5839 5840 5841 5842 5842 5842 5842 5842 5842 5842 5841 5841 5841 5841 5840 5839 5839 5839 5838 5838 5837 5837 5836 5835 5834 5833 5832 5830 5828 5826 5824 5823 5821 5819 5817 5816 5815 5813 5811 5810 5808 5807 5805 5803 5801 5799 5797 5795 5793 5791 5789 5787 5784 5782 5779 5777 5774 5771 5768 5765 5762 5759 5756 5752 5749 5746 5743
5812 5813 5815 5818 5820 5821 5823 5825 5826 5827 5829 5830 5832 5833 5834 5836 5837 5838 5838 5838 5839 5840 5841 5841 5842 5842 5842 5843 5842 5842 5842 5842 5841 5841 5841 5840 5840 5839 5839 5838 5838 5837 5837 5836 5835 5833 5832 5830 5829 5827 5825 5823 5821 5820 5818 5816 5815 5814 5812 5811 5809 5807 5805 5803 5802 5800 5798 5796 5793 5791 5788 5786 5784 5782 5779 5777 5774 5771 5768 5765 5762 5758 5755 5752 5749 5745 5742 5739
5811 5813 5815 5817 5819 5821 5823 5825 5826 5827 5829 5830 5832 5833 5835 5836 5837 5838 5838 5839 5839 5840 5841 5841 5842 5842 5843 5843 5842 5842 5842 5841 5841 5841 5840 5840 5839 5839 5839 5838 5837 5837 5836 5835 5834 5832 5831 5830 5828 5826 5824 5822 5820 5819 5817 5816 5814 5813 5811 5810 5808 5805 5803 5801 5799 5797 5796 5794 5792 5789 5786 5784 5782 5780 5777 5773 5770 5767 5764 5761 5758 5755 5752 5748 5745 5742 5739 5735
5810 5812 5815 5817 5819 5821 5823 5825 5826 5827 5829 5830 5832 5833 5835 5836 5837 5838 5838 5839 5839 5840 5841 5841 5842 5842 5842 5842 5842 5842 5841 5841 5841 5841 5840 5839 5839 5838 5838 5837 5837 5836 5835 5834 5833 5832 5831 5829 5827 5825 5823 5821 5819 5818 5817 5815 5814 5812 5810 5808 5806 5804 5802 5800 5798 5796 5794 5792 5790 5787 5784 5781 5779 5777 5774 5770 5767 5764 5761 5758 5755 5751 5748 5744 5741 5738 5735 5732
5811 5814 5816 5818 5819 5820 5822 5825 5826 5827 5829 5830 5832 5833 5835 5836 5837 5837 5838 5839 5839 5840 5841 5841 5842 5842 5842 5842 5842 5841 5841 5841 5841 5840 5840 5839 5838 5838 5837 5836 5836 5835 5834 5833 5832 5831 5829 5828 5826 5824 5822 5820 5819 5817 5816 5814 5813 5811 5809 5807 5805 5803 5801 5799 5797 5794 5792 5790 5788 5785 5782 5779 5776 5774 5770 5767 5764 5761 5757 5754 5751 5747 5744 5741 5737 5734 5731 5728
5812 5815 5817 5818 5819 5820 5822 5825 5826 5827 5829 5830 5832 5833 5835 5836 5836 5837 5838 5839 5840 5840 5841 5841 5842 5842 5842 5842 5841 5841 5841 5841 5840 5840 5839 5838 5838 5837 5837 5836 5835 5835 5834 5832 5831 5829 5828 5826 5824 5822 5821 5819 5818 5816 5815 5813 5812 5810 5807 5805 5803 5801 5799 5797 5795 5792 5790 5787 5785 5783 5780 5775 5772 5770 5767 5764 5760 5757 5754 5750 5747 5743 5740 5737 5734 5730 5727 5724
5813 5816 5818 5819 5820 5822 5823 5825 5826 5827 5829 5830 5832 5833 5835 5836 5837 5837 5838 5839 5840 5840 5841 5841 5841 5842 5842 5841 5841 5841 5841 5841 5840 5839 5839 5838 5837 5837 5836 5836 5835 5834 5833 5831 5830 5828 5826 5824 5823 5821 5820 5818 5817 5816 5814 5812 5810 5808 5806 5803 5801 5800 5798 5796 5793 5790 5788 5785 5782 5780 5777 5772 5769 5767 5763 5760 5757 5754 5750 5746 5743 5740 5736 5733 5730 5727 5723 5720
5815 5816 5818 5819 5821 5823 5824 5825 5827 5827 5829 5830 5832 5833 5834 5836 5837 5838 5839 5839 5840 5840 5841 5841 5841 5841 5842 5841 5841 5841 5841 5840 5840 5839 5838 5838 5837 5837 5836 5835 5834 5833 5831 5830 5828 5827 5825 5823 5822 5820 5819 5817 5816 5815 5813 5811 5809 5806 5804 5802 5800 5798 5796 5793 5791 5788 5785 5782 5779 5776 5774 5768 5765 5764 5760 5757 5753 5750 5746 5743 5739 5736 5733 5729 5726 5723 5719 5716
5816 5817 5819 5820 5821 5823 5824 5826 5827 5828 5829 5830 5831 5833 5834 5835 5837 5838 5839 5840 5840 5840 5841 5841 5841 5841 5841 5841 5841 5841 5840 5840 5839 5839 5838 5837 5837 5836 5835 5834 5833 5832 5830 5829 5827 5826 5824 5822 5821 5819 5818 5816 5815 5813 5811 5809 5807 5804 5802 5800 5797 5795 5793 5790 5787 5785 5782 5779 5776 5773 5771 5766 5761 5760 5758 5754 5750 5746 5743 5739 5736 5732 5729 5726 5722 5719 5715 5712
5817 5818 5819 5820 5822 5823 5824 5825 5827 5828 5829 5830 5831 5833 5834 5835 5837 5838 5839 5840 5840 5840 5841 5841 5841 5841 5841 5841 5841 5840 5840 5839 5839 5838 5838 5837 5836 5835 5834 5833 5832 5831 5829 5828 5826 5824 5823 5821 5820 5818 5817 5815 5814 5812 5810 5807 5805 5802 5799 5797 5795 5791 5789 5786 5784 5782 5779 5776 5773 5770 5768 5763 5758 5757 5755 5751 5747 5743 5739 5735 5732 5729 5725 5722 5718 5715 5712 5708
5817 5818 5819 5821 5822 5823 5824 5825 5826 5828 5829 5830 5831 5833 5834 5835 5837 5838 5839 5840 5840 5841 5841 5841 5841 5841 5841 5841 5840 5840 5839 5839 5838 5837 5837 5836 5835 5834 5834 5832 5831 5830 5828 5827 5825 5823 5822 5820 5818 5817 5816 5814 5812 5810 5808 5806 5802 5800 5797 5794 5792 5789 5786 5784 5781 5779 5776 5773 5770 5767 5765 5760 5755 5753 5751 5747 5742 5738 5735 5732 5728 5725 5722 5718 5715 5712 5708 5704
5817 5818 5820 5821 5822 5823 5824 5825 5826 5828 5829 5830 5831 5833 5834 5835 5837 5838 5839 5840 5840 5841 5841 5841 5841 5841 5841 5840 5840 5840 5839 5838 5837 5837 5836 5835 5834 5833 5832 5832 5830 5829 5827 5826 5824 5822 5821 5819 5818 5816 5814 5812 5810 5808 5806 5803 5800 5797 5795 5792 5790 5787 5784 5782 5780 5777 5774 5771 5767 5764 5762 5758 5752 5749 5747 5743 5739 5735 5731 5728 5725 5721 5718 5714 5711 5708 5704 5701
5817 5818 5820 5821 5822 5822 5823 5825 5826 5828 5829 5830 5832 5833 5834 5835 5837 5838 5839 5840 5840 5840 5840 5841 5841 5841 5840 5840 5840 5839 5838 5837 5837 5836 5835 5834 5833 5832 5831 5830 5829 5827 5826 5824 5823 5821 5820 5818 5816 5815 5813 5810 5808 5805 5802 5800 5798 5795 5793 5790 5788 5785 5782 5780 5777 5774 5771 5768 5764 5761 5758 5755 5750 5746 5743 5740 5735 5731 5728 5724 5721 5718 5714 5711 5707 5704 5701 5697
5817 5818 5820 5821 5822 5822 5823 5825 5826 5828 5829 5830 5831 5833 5834 5835 5836 5837 5838 5839 5840 5840 5840 5840 5840 5840 5840 5840 5839 5838 5837 5837 5836 5835 5835 5833 5832 5831 5830 5829 5827 5826 5824 5822 5821 5819 5818 5816 5814 5812 5810 5808 5805 5803 5800 5798 5796 5793 5791 5788 5786 5783 5780 5777 5774 5771 5768 5764 5760 5757 5754 5751 5746 5742 5739 5736 5732 5728 5724 5721 5718 5714 5711 5707 5704 5700 5697 5693
5817 5819 5820 5821 5821 5822 5823 5824 5826 5827 5829 5830 5831 5832 5833 5834 5836 5837 5837 5838 5839 5839 5839 5840 5840 5840 5839 5839 5838 5838 5837 5836 5836 5835 5834 5833 5832 5831 5829 5828 5826 5825 5823 5821 5820 5818 5816 5814 5813 5811 5808 5806 5804 5801 5799 5796 5794 5792 5789 5786 5783 5781 5778 5775 5771 5768 5764 5761 5757 5753 5750 5746 5742 5738 5734 5731 5728 5724 5721 5717 5714 5711 5707 5704 5700 5696 5693 5690
5817 5819 5820 5821 5821 5822 5823 5825 5826 5827 5828 5830 5831 5832 5833 5834 5835 5836 5837 5838 5838 5839 5839 5839 5839 5839 5839 5838 5838 5837 5836 5836 5835 5834 5833 5832 5831 5830 5829 5827 5825 5824 5822 5821 5819 5817 5815 5813 5811 5809 5807 5804 5802 5800 5797 5794 5792 5789 5787 5784 5781 5778 5775 5772 5768 5764 5761 5758 5754 5750 5746 5742 5738 5734 5731 5727 5724 5721 5717 5714 5711 5707 5703 5700 5696 5693 5690 5686
5817 5818 5819 5821 5822 5822 5824 5824 5825 5827 5828 5829 5831 5832 5833 5834 5835 5835 5836 5837 5838 5838 5838 5839 5839 5838 5838 5837 5837 5836 5836 5835 5834 5833 5832 5831 5830 5829 5828 5826 5824 5823 5821 5819 5818 5816 5814 5812 5810 5807 5805 5802 5800 5797 5795 5792 5789 5787 5783 5780 5777 5774 5772 5769 5765 5761 5757 5755 5751 5747 5743 5739 5735 5731 5727 5724 5720 5717 5714 5710 5706 5703 5699 5696 5693 5690 5687 5683
5817 5818 5819 5820 5821 5822 5823 5824 5825 5827 5828 5829 5830 5832 5833 5834 5834 5835 5836 5836 5837 5837 5838 5838 5838 5837 5837 5837 5836 5836 5835 5834 5833 5832 5831 5830 5829 5828 5827 5825 5823 5822 5820 5818 5816 5814 5812 5810 5808 5806 5803 5800 5798 5795 5792 5789 5786 5783 5780 5777 5774 5771 5768 5765 5762 5758 5753 5750 5747 5744 5741 5736 5731 5728 5724 5720 5717 5713 5710 5706 5702 5699 5695 5692 5689 5686 5683 5679
5816 5817 5818 5820 5821 5822 5823 5824 5825 5826 5827 5828 5830 5831 5832 5833 5834 5835 5835 5836 5836 5836 5837 5837 5837 5837 5836 5836 5835 5835 5834 5833 5832 5831 5830 5829 5828 5827 5825 5824 5822 5820 5818 5816 5814 5812 5810 5808 5806 5803 5801 5798 5795 5792 5790 5787 5783 5780 5777 5774 5771 5768 5764 5761 5758 5755 5750 5746 5743 5740 5738 5734 5728 5724 5721 5716 5713 5710 5706 5702 5699 5695 5692 5689 5685 5682 5678 5675
5816 5817 5818 5819 5820 5821 5823 5824 5825 5826 5827 5828 5829 5831 5832 5833 5833 5834 5834 5835 5835 5836 5836 5836 5836 5836 5836 5835 5835 5834 5833 5832 5831 5830 5829 5828 5827 5825 5824 5822 5820 5818 5816 5814 5812 5810 5808 5806 5803 5801 5798 5795 5793 5790 5787 5784 5780 5777 5774 5771 5768 5765 5761 5758 5754 5751 5747 5742 5738 5734 5733 5731 5726 5719 5716 5713 5709 5706 5702 5699 5695 5691 5688 5685 5681 5678 5674 5671
5816 5816 5817 5818 5820 5821 5823 5824 5825 5826 5827 5828 5829 5830 5831 5832 5832 5833 5834 5834 5835 5835 5835 5835 5835 5835 5835 5834 5834 5833 5832 5831 5830 5829 5828 5827 5825 5823 5822 5820 5818 5816 5814 5812 5810 5808 5806 5803 5801 5798 5796 5793 5790 5787 5784 5780 5777 5774 5772 5769 5765 5762 5758 5754 5750 5746 5742 5738 5735 5730 5726 5726 5723 5716 5712 5710 5706 5703 5699 5695 5691 5688 5684 5681 5677 5674 5670 5667
5815 5816 5817 5818 5819 5821 5822 5824 5825 5825 5826 5827 5828 5829 5830 5831 5832 5832 5833 5834 5834 5835 5835 5835 5835 5834 5834 5833 5833 5832 5831 5830 5829 5828 5826 5825 5823 5822 5820 5818 5816 5814 5812 5810 5808 5806 5804 5801 5799 5796 5793 5790 5787 5784 5780 5777 5774 5771 5768 5765 5762 5758 5755 5751 5746 5742 5738 5734 5731 5727 5722 5720 5718 5713 5709 5706 5702 5699 5695 5691 5687 5684 5680 5677 5673 5670 5667 5663
5815 5816 5817 5818 5819 5820 5822 5823 5824 5825 5826 5827 5828 5829 5829 5830 5831 5832 5832 5833 5834 5834 5834 5834 5834 5833 5833 5832 5832 5831 5830 5829 5827 5826 5825 5823 5822 5820 5818 5816 5814 5812 5810 5808 5806 5804 5801 5799 5796 5793 5790 5787 5784 5780 5777 5774 5771 5768 5765 5762 5759 5755 5751 5747 5743 5739 5735 5731 5727 5724 5719 5716 5713 5709 5705 5702 5699 5695 5691 5687 5683 5680 5676 5673 5669 5666 5663 5659
5814 5815 5816 5818 5819 5820 5821 5823 5824 5825 5826 5826 5827 5828 5829 5829 5830 5831 5832 5833 5833 5833 5833 5833 5833 5832 5832 5831 5830 5830 5829 5827 5826 5825 5823 5821 5820 5818 5816 5814 5812 5810 5808 5806 5803 5801 5799 5796 5793 5790 5787 5784 5781 5777 5774 5771 5768 5764 5761 5758 5755 5751 5748 5744 5740 5735 5731 5727 5724 5720 5716 5712 5709 5704 5700 5697 5694 5691 5688 5683 5680 5676 5672 5669 5665 5662 5659 5655
5814 5815 5816 5818 5819 5820 5821 5822 5823 5825 5825 5826 5826 5827 5828 5829 5830 5830 5831 5832 5832 5832 5832 5832 5832 5831 5831 5830 5829 5828 5827 5826 5824 5823 5821 5820 5818 5816 5814 5812 5810 5808 5805 5803 5801 5798 5796 5793 5790 5787 5784 5781 5778 5774 5771 5768 5764 5761 5758 5754 5751 5747 5744 5740 5736 5732 5728 5724 5720 5717 5712 5708 5704 5700 5695 5692 5689 5686 5683 5680 5676 5673 5670 5665 5662 5658 5655 5651
5813 5814 5816 5817 5819 5820 5821 5822 5823 5824 5825 5825 5826 5826 5827 5828 5829 5830 5831 5831 5831 5831 5831 5830 5830 5830 5829 5828 5827 5826 5825 5824 5822 5821 5819 5818 5816 5814 5812 5809 5807 5805 5803 5801 5798 5796 5793 5790 5787 5784 5781 5778 5774 5771 5768 5765 5761 5758 5754 5751 5747 5743 5740 5736 5733 5729 5725 5720 5716 5713 5709 5704 5700 5695 5691 5688 5684 5681 5679 5676 5673 5670 5667 5663 5658 5654 5650 5646
5812 5814 5815 5817 5818 5820 5821 5822 5822 5823 5824 5825 5825 5826 5826 5827 5828 5829 5830 5829 5829 5830 5829 5829 5829 5828 5828 5827 5826 5825 5823 5822 5821 5819 5817 5815 5813 5811 5809 5807 5804 5802 5800 5798 5795 5793 5791 5787 5784 5781 5778 5775 5771 5768 5765 5761 5758 5754 5750 5746 5742 5738 5735 5732 5729 5725 5721 5717 5713 5709 5705 5702 5698 5692 5688 5685 5681 5677 5675 5672 5669 5665 5662 5659 5655 5650 5646 5642
5812 5813 5815 5817 5818 5819 5820 5821 5822 5822 5823 5824 5825 5825 5826 5827 5828 5828 5828 5828 5828 5828 5828 5827 5827 5826 5826 5825 5824 5823 5821 5820 5818 5817 5815 5813 5811 5809 5807 5804 5802 5799 5796 5794 5792 5789 5787 5784 5781 5778 5775 5771 5768 5765 5761 5758 5754 5750 5746 5742 5737 5733 5729 5726 5723 5720 5717 5713 5710 5707 5703 5699 5696 5690 5685 5682 5678 5674 5672 5669 5666 5661 5657 5654 5650 5646 5641 5637
5811 5813 5815 5816 5818 5819 5820 5820 5821 5822 5823 5823 5824 5824 5825 5826 5827 5827 5827 5826 5826 5826 5826 5826 5825 5825 5824 5823 5822 5821 5819 5817 5816 5814 5812 5810 5808 5806 5804 5801 5799 5796 5793 5790 5788 5786 5783 5781 5778 5775 5771 5768 5764 5761 5757 5754 5750 5747 5742 5738 5734 5729 5724 5720 5717 5714 5711 5708 5706 5704 5700 5696 5692 5687 5682 5679 5674 5671 5668 5666 5662 5658 5653 5649 5645 5641 5636 5631
5811 5813 5815 5816 5817 5818 5819 5820 5821 5821 5822 5823 5823 5824 5825 5825 5825 5826 5825 5825 5825 5825 5824 5824 5823 5823 5822 5821 5820 5818 5816 5815 5814 5812 5810 5808 5805 5803 5801 5798 5795 5793 5790 5787 5784 5782 5779 5777 5774 5771 5768 5764 5761 5757 5754 5750 5746 5743 5739 5735 5730 5726 5721 5717 5713 5710 5705 5702 5701 5701 5697 5693 5689 5684 5679 5676 5671 5668 5665 5661 5658 5654 5649 5644 5640 5636 5631 5626
5810 5812 5814 5816 5817 5818 5819 5820 5820 5821 5821 5822 5823 5823 5824 5824 5824 5824 5824 5824 5823 5823 5822 5822 5821 5820 5820 5819 5818 5816 5814 5812 5811 5809 5807 5805 5802 5800 5798 5795 5792 5790 5787 5784 5781 5778 5776 5773 5771 5768 5764 5761 5757 5754 5750 5746 5741 5738 5735 5731 5726 5722 5717 5712 5709 5707 5701 5696 5695 5696 5693 5690 5686 5680 5675 5672 5668 5664 5661 5657 5654 5650 5645 5640 5636 5631 5627 5622
5810 5812 5814 5816 5817 5818 5819 5819 5820 5820 5821 5821 5822 5822 5822 5822 5822 5822 5822 5822 5821 5821 5820 5820 5819 5818 5817 5816 5815 5813 5811 5809 5808 5806 5804 5802 5799 5797 5795 5792 5789 5786 5784 5781 5778 5775 5772 5770 5768 5765 5761 5758 5754 5750 5747 5743 5738 5734 5730 5727 5723 5718 5714 5709 5704 5701 5696 5690 5689 5690 5689 5686 5682 5676 5671 5668 5664 5661 5658 5654 5651 5647 5642 5637 5632 5627 5623 5618
5811 5813 5815 5816 5817 5818 5818 5819 5819 5819 5820 5820 5820 5821 5821 5821 5821 5821 5820 5820 5819 5819 5818 5818 5817 5816 5815 5814 5812 5811 5809 5807 5805 5802 5800 5798 5796 5794 5791 5788 5786 5783 5780 5777 5774 5771 5768 5765 5764 5762 5758 5754 5750 5747 5743 5739 5735 5731 5727 5723 5719 5714 5709 5705 5701 5697 5692 5685 5681 5682 5684 5683 5678 5671 5666 5664 5660 5657 5654 5650 5647 5643 5639 5633 5628 5623 5618 5614
5812 5813 5815 5816 5817 5817 5818 5818 5818 5819 5819 5819 5819 5819 5819 5819 5819 5819 5819 5818 5818 5817 5817 5816 5814 5813 5812 5811 5809 5808 5806 5804 5802 5799 5797 5795 5793 5791 5788 5785 5783 5780 5777 5774 5771 5768 5764 5761 5759 5758 5754 5750 5746 5743 5739 5735 5731 5727 5724 5720 5715 5711 5706 5701 5697 5694 5689 5682 5677 5674 5676 5680 5677 5666 5661 5660 5656 5653 5650 5645 5642 5639 5634 5629 5622 5618 5614 5609
5812 5813 5814 5815 5816 5817 5817 5817 5817 5818 5818 5818 5818 5818 5818 5818 5818 5817 5817 5816 5816 5815 5814 5813 5812 5810 5809 5808 5806 5804 5802 5800 5799 5796 5794 5792 5789 5787 5784 5782 5779 5776 5773 5770 5767 5764 5760 5756 5754 5753 5751 5746 5742 5739 5735 5731 5727 5723 5720 5716 5712 5707 5702 5697 5694 5691 5687 5681 5676 5670 5669 5677 5676 5663 5658 5656 5651 5649 5647 5642 5638 5634 5630 5624 5618 5613 5609 5605
5812 5813 5814 5815 5816 5816 5816 5816 5816 5816 5817 5817 5817 5817 5817 5817 5816 5816 5815 5814 5814 5813 5812 5811 5810 5808 5806 5805 5803 5801 5799 5797 5796 5793 5791 5789 5786 5783 5781 5778 5775 5772 5769 5766 5763 5759 5756 5752 5750 5748 5746 5742 5739 5736 5731 5727 5723 5720 5717 5713 5708 5704 5699 5693 5688 5687 5685 5680 5676 5668 5664 5672 5673 5660 5655 5653 5647 5644 5643 5638 5634 5630 5625 5620 5614 5609 5605 5601
5812 5813 5813 5814 5815 5815 5815 5815 5815 5815 5816 5816 5816 5816 5815 5815 5815 5814 5813 5812 5811 5811 5810 5808 5807 5805 5803 5802 5800 5798 5796 5794 5792 5790 5788 5785 5783 5780 5777 5774 5771 5768 5765 5762 5759 5755 5751 5748 5746 5744 5742 5738 5735 5732 5727 5723 5720 5716 5713 5709 5705 5700 5696 5690 5684 5681 5680 5677 5674 5665 5659 5667 5668 5656 5652 5649 5642 5639 5638 5634 5630 5625 5620 5614 5608 5604 5600 5596
5811 5812 5813 5813 5814 5814 5814 5814 5814 5814 5815 5815 5814 5814 5814 5813 5813 5812 5811 5810 5809 5808 5807 5805 5804 5802 5801 5799 5797 5795 5793 5790 5789 5787 5784 5782 5779 5776 5773 5770 5767 5764 5761 5758 5755 5751 5747 5744 5742 5740 5738 5735 5732 5728 5724 5720 5716 5713 5709 5705 5700 5697 5692 5687 5681 5678 5675 5674 5672 5661 5652 5659 5662 5654 5649 5644 5636 5633 5632 5629 5626 5621 5616 5610 5603 5598 5594 5589
5811 5812 5812 5813 5813 5813 5813 5813 5813 5813 5813 5813 5813 5813 5812 5811 5811 5810 5809 5808 5807 5806 5804 5803 5801 5799 5798 5796 5794 5792 5789 5787 5785 5783 5781 5778 5775 5772 5769 5766 5763 5760 5757 5754 5751 5747 5743 5740 5737 5734 5731 5731 5729 5724 5719 5716 5713 5710 5706 5702 5697 5693 5688 5683 5679 5674 5670 5669 5668 5658 5648 5650 5654 5650 5645 5638 5632 5629 5627 5625 5622 5616 5610 5604 5598 5593 5588 5582
5811 5811 5812 5812 5812 5812 5812 5812 5812 5812 5812 5812 5812 5811 5810 5809 5808 5808 5807 5806 5804 5803 5802 5800 5799 5796 5795 5793 5791 5789 5786 5784 5781 5779 5777 5774 5771 5768 5765 5762 5759 5756 5753 5750 5746 5743 5740 5737 5734 5729 5726 5724 5722 5718 5712 5709 5707 5705 5702 5698 5693 5689 5684 5680 5675 5670 5665 5661 5660 5656 5646 5643 5647 5646 5639 5633 5628 5624 5622 5620 5618 5612 5604 5596 5590 5585 5581 5575
5811 5811 5811 5811 5811 5811 5811 5811 5811 5811 5811 5811 5810 5809 5808 5807 5806 5806 5804 5803 5802 5801 5799 5797 5795 5793 5792 5790 5788 5785 5783 5780 5778 5775 5773 5770 5767 5764 5761 5758 5755 5752 5749 5746 5742 5739 5736 5734 5731 5727 5724 5721 5717 5713 5708 5704 5702 5701 5698 5693 5688 5682 5679 5676 5671 5666 5662 5654 5652 5654 5645 5636 5640 5640 5632 5627 5624 5618 5615 5612 5610 5606 5598 5590 5584 5579 5574 5568
5810 5810 5810 5810 5810 5810 5810 5810 5810 5810 5809 5809 5808 5807 5806 5805 5804 5803 5802 5801 5800 5798 5796 5794 5792 5790 5788 5786 5784 5782 5779 5777 5774 5772 5769 5766 5763 5761 5758 5755 5752 5748 5745 5741 5738 5734 5731 5729 5727 5724 5722 5720 5715 5710 5706 5702 5699 5698 5694 5689 5683 5678 5675 5673 5669 5664 5659 5650 5647 5649 5642 5633 5634 5633 5625 5621 5618 5613 5609 5606 5603 5599 5591 5584 5578 5573 5568 5562
5810 5810 5810 5810 5810 5809 5809 5809 5809 5808 5808 5807 5806 5805 5804 5803 5802 5801 5800 5799 5797 5795 5793 5791 5789 5787 5785 5783 5780 5778 5776 5773 5771 5768 5765 5762 5760 5757 5754 5751 5748 5744 5741 5737 5734 5730 5726 5725 5723 5720 5719 5718 5712 5707 5704 5700 5697 5695 5691 5684 5678 5675 5671 5669 5667 5662 5656 5649 5645 5643 5638 5632 5630 5626 5621 5617 5611 5606 5602 5599 5597 5592 5583 5576 5572 5566 5562 5556
5809 5809 5809 5809 5809 5808 5808 5808 5807 5807 5806 5805 5805 5804 5803 5801 5800 5799 5798 5796 5794 5793 5790 5788 5786 5784 5782 5779 5777 5774 5772 5770 5767 5764 5761 5759 5756 5753 5750 5747 5743 5740 5737 5733 5730 5726 5722 5720 5718 5715 5715 5716 5711 5704 5701 5697 5694 5693 5688 5680 5675 5672 5669 5666 5664 5660 5653 5647 5642 5637 5633 5631 5627 5620 5615 5612 5606 5600 5596 5593 5590 5586 5577 5569 5564 5560 5554 5548
5809 5809 5809 5808 5808 5807 5807 5807 5806 5805 5804 5804 5803 5802 5801 5799 5798 5796 5795 5793 5791 5789 5788 5785 5783 5781 5778 5776 5773 5771 5768 5766 5763 5760 5757 5755 5752 5748 5745 5743 5739 5736 5733 5729 5726 5723 5719 5716 5714 5710 5710 5712 5708 5702 5699 5694 5690 5688 5684 5677 5672 5669 5666 5662 5661 5658 5651 5644 5638 5633 5627 5626 5623 5616 5610 5606 5600 5594 5589 5586 5584 5580 5572 5563 5556 5551 5545 5540
5808 5808 5808 5807 5807 5806 5806 5805 5805 5804 5803 5802 5801 5800 5798 5797 5795 5794 5792 5790 5788 5786 5784 5782 5780 5777 5775 5772 5769 5767 5764 5761 5759 5756 5753 5750 5747 5744 5741 5739 5735 5732 5729 5726 5723 5720 5715 5712 5709 5705 5704 5707 5703 5698 5696 5692 5687 5683 5678 5673 5669 5666 5662 5659 5656 5653 5648 5639 5633 5628 5622 5618 5616 5611 5606 5601 5595 5588 5582 5579 5576 5571 5564 5557 5549 5542 5536 5531
5807 5807 5807 5806 5806 5805 5804 5804 5803 5802 5801 5800 5799 5797 5796 5794 5793 5791 5789 5787 5785 5783 5781 5779 5776 5774 5771 5768 5766 5763 5760 5757 5755 5752 5749 5746 5743 5740 5737 5735 5731 5728 5725 5722 5719 5716 5712 5708 5705 5701 5699 5701 5698 5693 5691 5688 5684 5679 5673 5668 5665 5662 5657 5653 5650 5648 5643 5634 5627 5622 5618 5613 5610 5605 5601 5597 5592 5585 5577 5572 5567 5559 5552 5549 5544 5536 5529 5524